Le nostre stazioni meteo in Italia

Pubblicità
Il mio iltempo24.it
Piacenza, Italia (16084): Temperatura & dewpoint: 11.02.2019 14:00:00 - 17.02.2019 14:00:00 (CET)Piacenza, Italia (16084): velocità del vento: 11.02.2019 14:00:00 - 17.02.2019 14:00:00 (CET)Piacenza, Italia (16084): direzione del vento: 11.02.2019 14:00:00 - 17.02.2019 14:00:00 (CET)Piacenza, Italia (16084): reduced air pressure: 11.02.2019 14:00:00 - 17.02.2019 14:00:00 (CET)Piacenza, Italia (16084): visibility: 11.02.2019 14:00:00 - 17.02.2019 14:00:00 (CET)Piacenza, Italia (16084): ore di luce: 11.02.2019 14:00:00 - 17.02.2019 14:00:00 (CET)
Data & Tempo tt [°C] td [°C] ff [km/h] ff [kn] dd ppp [hPa] vv [km] sd [min]
17.02.2019 14:00:00 - - - - - - - -
17.02.2019 13:00:00 14,2 0,4 5 3 N 1027,5 8 60
17.02.2019 12:00:00 13,0 2,0 5 3 NE - 8 -
17.02.2019 11:00:00 12,0 3,0 5 3 NE - 10 -
17.02.2019 10:00:00 8,8 3,6 2 1 OSO 1028,8 10 60
17.02.2019 09:00:00 4,0 3,0 13 7 O - 10 -
17.02.2019 08:00:00 3,0 2,0 9 5 OSO - 10 -
17.02.2019 07:00:00 0,8 0,8 13 7 OSO 1028,8 10 0
17.02.2019 06:00:00 - - - - - - - -
17.02.2019 05:00:00 - - - - - - - -
17.02.2019 04:00:00 - - - - - - - -
17.02.2019 03:00:00 - - - - - - - -
17.02.2019 02:00:00 - - - - - - - -
17.02.2019 01:00:00 - - - - - - - -
17.02.2019 00:00:00 - - - - - - - -
16.02.2019 23:00:00 - - - - - - - -
16.02.2019 22:00:00 - - - - - - - -
16.02.2019 21:00:00 - - - - - - - -
16.02.2019 20:00:00 - - - - - - - -
16.02.2019 19:00:00 7,8 5,9 5 3 OSO 1029,5 3,5 0
16.02.2019 18:00:00 10,0 5,0 2 1 - - 3,5 -
16.02.2019 17:00:00 14,0 3,0 2 1 NNO - 3,5 -
16.02.2019 16:00:00 14,6 4,0 4 2 N 1029,3 3,5 60
16.02.2019 15:00:00 14,0 4,0 5 3 N - 3,5 -
16.02.2019 14:00:00 14,0 4,0 5 3 SSO - 3,5 -
16.02.2019 13:00:00 12,8 4,0 8 4 N 1031,3 3,5 60
16.02.2019 12:00:00 12,0 4,0 5 3 N - 4,0 -
16.02.2019 11:00:00 11,0 4,0 5 3 NNO - 5 -
16.02.2019 10:00:00 7,8 2,7 8 4 ONO 1032,2 7 60
16.02.2019 09:00:00 5,0 4,0 13 7 O - 7 -
16.02.2019 08:00:00 0,0 0,0 11 6 OSO - 7 -
16.02.2019 07:00:00 1,0 1,0 11 6 O 1031,8 10 0
16.02.2019 06:00:00 - - - - - - - -
16.02.2019 05:00:00 - - - - - - - -
16.02.2019 04:00:00 - - - - - - - -
16.02.2019 03:00:00 - - - - - - - -
16.02.2019 02:00:00 - - - - - - - -
16.02.2019 01:00:00 - - - - - - - -
16.02.2019 00:00:00 - - - - - - - -
15.02.2019 23:00:00 - - - - - - - -
15.02.2019 22:00:00 - - - - - - - -
15.02.2019 21:00:00 - - - - - - - -
15.02.2019 20:00:00 - - - - - - - -
15.02.2019 19:00:00 7,0 4,5 8 4 SSE 1030,3 8 0
15.02.2019 18:00:00 11,0 3,0 9 5 SE - 7 -
15.02.2019 17:00:00 14,0 1,0 8 4 ESE - 8 -
15.02.2019 16:00:00 14,8 0,3 8 4 ESE 1029,0 10 60
15.02.2019 15:00:00 15,0 1,0 8 4 ENE - 10 -
15.02.2019 14:00:00 14,0 1,0 5 3 NE - 10 -
15.02.2019 13:00:00 13,8 1,8 8 4 NE 1030,6 10 60
15.02.2019 12:00:00 12,0 3,0 5 3 NNE - 10 -
15.02.2019 11:00:00 12,0 0,0 8 4 N - 10 -
15.02.2019 10:00:00 9,2 1,4 8 4 O 1032,1 12 60
15.02.2019 09:00:00 3,0 2,0 11 6 O - 10 -
15.02.2019 08:00:00 0,0 0,0 5 3 SO - 10 -
15.02.2019 07:00:00 -0,6 -0,6 8 4 SO 1032,3 12 0
15.02.2019 06:00:00 - - - - - - - -
15.02.2019 05:00:00 - - - - - - - -
15.02.2019 04:00:00 - - - - - - - -
15.02.2019 03:00:00 - - - - - - - -
15.02.2019 02:00:00 - - - - - - - -
15.02.2019 01:00:00 - - - - - - - -
15.02.2019 00:00:00 - - - - - - - -
14.02.2019 23:00:00 - - - - - - - -
14.02.2019 22:00:00 - - - - - - - -
14.02.2019 21:00:00 - - - - - - - -
14.02.2019 20:00:00 - - - - - - - -
14.02.2019 19:00:00 5,4 3,1 8 4 SO 1032,0 10 0
14.02.2019 18:00:00 10,0 1,0 2 1 ESE - 10 -
14.02.2019 17:00:00 14,0 -1,0 5 3 E - 10 -
14.02.2019 16:00:00 14,2 -1,0 4 2 N 1031,6 10 60
14.02.2019 15:00:00 14,0 0,0 5 3 NO - 10 -
14.02.2019 14:00:00 13,0 -1,0 5 3 N - 10 -
14.02.2019 13:00:00 12,0 -1,2 5 3 NNO 1033,8 10 60
14.02.2019 12:00:00 11,0 2,0 5 3 NNE - 10 -
14.02.2019 11:00:00 9,0 2,0 8 4 NNE - 10 -
14.02.2019 10:00:00 8,4 2,0 9 5 O 1035,2 16 60
14.02.2019 09:00:00 3,0 1,0 13 7 OSO - 10 -
14.02.2019 08:00:00 1,0 0,0 11 6 OSO - 10 -
14.02.2019 07:00:00 0,0 0,0 16 9 O 1036,6 15 0
14.02.2019 06:00:00 - - - - - - - -
14.02.2019 05:00:00 - - - - - - - -
14.02.2019 04:00:00 - - - - - - - -
14.02.2019 03:00:00 - - - - - - - -
14.02.2019 02:00:00 - - - - - - - -
14.02.2019 01:00:00 - - - - - - - -
14.02.2019 00:00:00 - - - - - - - -
13.02.2019 23:00:00 - - - - - - - -
13.02.2019 22:00:00 - - - - - - - -
13.02.2019 21:00:00 - - - - - - - -
13.02.2019 20:00:00 - - - - - - - -
13.02.2019 19:00:00 6,0 2,5 8 4 SO 1034,8 15 -
13.02.2019 18:00:00 9,0 -2,0 2 1 ENE - 10 -
13.02.2019 17:00:00 11,0 -2,0 4 2 ENE - 10 -
13.02.2019 16:00:00 12,0 -0,2 2 1 ENE 1034,4 12 60
13.02.2019 15:00:00 12,0 0,0 5 3 E - 10 -
13.02.2019 14:00:00 11,0 2,0 5 3 E - 10 -
13.02.2019 13:00:00 9,6 3,1 5 3 NE 1035,5 12 60
13.02.2019 12:00:00 8,0 3,0 5 3 NE - 10 -
13.02.2019 11:00:00 7,0 4,0 4 2 NNO - 10 -
13.02.2019 10:00:00 4,4 0,2 5 3 NNO 1036,0 12 60
13.02.2019 09:00:00 1,0 1,0 5 3 OSO - 10 -
13.02.2019 08:00:00 -1,0 -1,0 8 4 O - 10 -
13.02.2019 07:00:00 -1,4 -1,4 8 4 OSO 1033,9 20 0
13.02.2019 06:00:00 - - - - - - - -
13.02.2019 05:00:00 - - - - - - - -
13.02.2019 04:00:00 - - - - - - - -
13.02.2019 03:00:00 - - - - - - - -
13.02.2019 02:00:00 - - - - - - - -
13.02.2019 01:00:00 - - - - - - - -
13.02.2019 00:00:00 - - - - - - - -
12.02.2019 23:00:00 - - - - - - - -
12.02.2019 22:00:00 - - - - - - - -
12.02.2019 21:00:00 - - - - - - - -
12.02.2019 20:00:00 - - - - - - - -
12.02.2019 19:00:00 7,8 -2,8 0 0 N 1024,8 10 0
12.02.2019 18:00:00 12,0 -9,0 9 5 SE - 10 -
12.02.2019 17:00:00 15,0 -16,0 11 6 NE - 10 -
12.02.2019 16:00:00 17,0 -14,8 11 6 NNO 1021,8 40 60
12.02.2019 15:00:00 16,0 -15,0 18 10 NO - 10 -
12.02.2019 14:00:00 16,0 -16,0 15 8 NO - 10 -
12.02.2019 13:00:00 14,6 -16,7 22 12 NNO 1023,1 40 60
12.02.2019 12:00:00 14,0 -17,0 18 10 NO - 10 -
12.02.2019 11:00:00 13,0 -15,0 22 12 NO - 10 -
12.02.2019 10:00:00 10,6 -10,2 16 9 ONO 1024,6 40 60
12.02.2019 09:00:00 8,0 -8,0 16 9 O - 10 -
12.02.2019 08:00:00 5,0 -7,0 16 9 O - 10 -
12.02.2019 07:00:00 2,4 -4,1 16 9 O 1024,2 20 0
12.02.2019 06:00:00 - - - - - - - -
12.02.2019 05:00:00 - - - - - - - -
12.02.2019 04:00:00 - - - - - - - -
12.02.2019 03:00:00 - - - - - - - -
12.02.2019 02:00:00 - - - - - - - -
12.02.2019 01:00:00 - - - - - - - -
12.02.2019 00:00:00 - - - - - - - -
11.02.2019 23:00:00 - - - - - - - -
11.02.2019 22:00:00 - - - - - - - -
11.02.2019 21:00:00 - - - - - - - -
11.02.2019 20:00:00 - - - - - - - -
11.02.2019 19:00:00 9,6 -18,4 18 10 ONO 1016,5 50 0
11.02.2019 18:00:00 11,0 -20,0 21 11 ONO - 10 -
11.02.2019 17:00:00 12,0 -19,0 24 13 NO - 10 -
11.02.2019 16:00:00 12,4 -18,4 29 16 NO 1013,4 50 18
11.02.2019 15:00:00 13,0 -18,0 29 16 NO - 10 -
11.02.2019 14:00:00 13,0 -18,0 34 18 NO - 10 -

tt = Temperatura
td = dewpoint
ff = velocità del vento
dd = direzione del vento
ppp = reduced air pressure
vv = visibility
sd = ore di luce

Stazioni seguenti

WeatherPro
AMSI
MeteoEarth